Find Starlink 31115

NORAD ID: 58729 Int'l Des: 2024-005 Owner: SPXS Country: US Constellation: starlink operational
LEOCIRCULAR

Current View

Loading 3D Globe...

About Starlink 31115

Starlink 31115 (NORAD 58729) is a starlink constellation satellite (v2 mini) launched Jan 7, 2024 by SPXS of US. It operates in LEO, CIRCULAR orbit with a mass of 730.00 kg.

About Starlink 31115

Description loading...

Upcoming Passes

Passes for default location (London). Set your location on the main map for personalized predictions.

Altitude History

Loading altitude history...

Two-Line Element Set

1 58729U 24005B 26167.32347441 -.00000052 00000-0 76416-5 0 9999
2 58729 43.0017 23.1217 0001435 264.2018 95.8670 15.27575319135515
Epoch: Jun 16, 2026 • Age: 11 hours

Current Status

Altitude 490.1 km
Velocity 7.62 km/s
Sub-Earth Point -29.28°S, 160.57°E
Launch Date Jan 7, 2024
Age 2.4 years
Type internet

Technical Details

Classification Payload
Mass 730.00 kg
Dry Mass 700.00 kg
Total Mass 730.00 kg
Length 0.30 m
Diameter 4.10 m
Span 29.00 m
Shape Box + pan
Manufacturer SPXS
Bus Type Starlink V2M
Phase Status In Orbit
Owner/State SPXS/US

Most Searched